Weather History for Andalusia, AL

Change the Weather History Date:

Thursday, April 4, 2013

  Actual Average (KCEW) Record (KCEW)
Temperature  
Mean Temperature 63 °F -  
Max Temperature 69 °F 77 °F 85 °F (1979)
Min Temperature 57 °F 51 °F 35 °F (1992)
Degree Days  
Heating Degree Days 2    
Growing Degree Days 13 (Base 50)    
Moisture  
Dew Point 56 °F    
Average Humidity 78    
Maximum Humidity 88    
Minimum Humidity 64    
Precipitation  
Precipitation 0.10 in - - ()
Sea Level Pressure  
Sea Level Pressure 29.91 in    
Wind  
Wind Speed 6 mph (East)    
Max Wind Speed 10 mph    
Max Gust Speed -    
Visibility 7 miles    
Events Rain    
Averages and records for this station are not official NWS values.
T = Trace of Precipitation, MM = Missing Value Source: NWS Daily Summary

Daily Weather History Graph

Daily Weather History Graph

Search for Another Location

Airport:

Trip Planner

Search our weather history database for the weather conditions in past years. The results will help you decide how hot, cold, wet, or windy it might be!

Date:

Astronomy

Apr. 04, 2013 Rise Set
Actual Time 6:30 AM CDT 7:07 PM CDT
Civil Twilight 6:05 AM CDT 7:31 PM CDT
Nautical Twilight 5:37 AM CDT 8:00 PM CDT
Astronomical Twilight 5:07 AM CDT 8:29 PM CDT
Moon 2:35 AM CDT (4/4) 1:44 PM CDT (4/4)
Length of Visible Light 13h 25m
Length of Day
12h 36m
Waning Crescent, 33% of the Moon is Illuminated
Apr 4
Waning Crescent
Apr 10
New
Apr 18
First Quarter
Apr 25
Full
May 2
Last Quarter

Hourly Weather History & Observations

Time (CDT) Temp. Dew Point Humidity Pressure Visibility Wind Dir Wind Speed Gust Speed Precip Events Conditions
12:56 AM 60.1 °F 55.0 °F 83% 29.95 in 4.0 mi East 8.1 mph - 0.00 in Rain Light Rain
1:03 AM 59.0 °F 55.4 °F 88% 29.96 in 4.0 mi East 6.9 mph - 0.00 in Rain Light Rain
1:56 AM 59.0 °F 55.0 °F 87% 29.93 in 4.0 mi East 6.9 mph - 0.01 in   Overcast
2:56 AM 60.1 °F 55.0 °F 83% 29.92 in 4.0 mi East 5.8 mph - N/A   Haze
3:56 AM 60.1 °F 55.0 °F 83% 29.89 in 4.0 mi East 10.4 mph - 0.00 in   Haze
4:56 AM 60.1 °F 55.9 °F 86% 29.88 in 5.0 mi ESE 8.1 mph - N/A   Overcast
5:56 AM 61.0 °F 55.9 °F 83% 29.88 in 6.0 mi ESE 10.4 mph - N/A   Haze
6:56 AM 61.0 °F 55.9 °F 83% 29.91 in 10.0 mi SE 3.5 mph - N/A   Overcast
7:10 AM 62.6 °F 55.4 °F 77% 29.94 in 10.0 mi Calm Calm - N/A   Overcast
7:52 AM 60.8 °F 55.4 °F 82% 29.94 in 1.8 mi East 4.6 mph - 0.02 in Rain Light Rain
7:56 AM 61.0 °F 55.9 °F 83% 29.93 in 1.5 mi East 3.5 mph - 0.02 in Rain Light Rain
8:09 AM 60.8 °F 55.4 °F 82% 29.95 in 2.0 mi NNE 3.5 mph - 0.00 in Rain Light Rain
8:20 AM 60.8 °F 55.4 °F 82% 29.94 in 1.5 mi East 5.8 mph - 0.02 in Rain Rain
8:28 AM 60.8 °F 55.4 °F 82% 29.94 in 3.0 mi East 5.8 mph - 0.02 in Rain Light Rain
8:40 AM 62.6 °F 55.4 °F 77% 29.94 in 8.0 mi ESE 8.1 mph - 0.02 in   Overcast
8:56 AM 62.1 °F 57.0 °F 84% 29.94 in 9.0 mi SE 8.1 mph - 0.02 in   Overcast
9:04 AM 62.6 °F 57.2 °F 82% 29.94 in 9.0 mi ESE 6.9 mph - N/A   Overcast
9:56 AM 61.0 °F 55.9 °F 83% 29.94 in 10.0 mi East 6.9 mph - N/A   Overcast
10:56 AM 62.1 °F 55.9 °F 80% 29.95 in 8.0 mi SE 6.9 mph - 0.00 in   Overcast
11:56 AM 62.1 °F 55.9 °F 80% 29.94 in 9.0 mi Variable 3.5 mph - N/A   Overcast
12:52 PM 62.6 °F 55.4 °F 77% 29.93 in 10.0 mi Calm Calm - N/A   Overcast
12:56 PM 64.0 °F 55.9 °F 75% 29.92 in 10.0 mi Calm Calm - N/A   Overcast
1:56 PM 66.0 °F 57.0 °F 73% 29.91 in 10.0 mi ESE 5.8 mph - N/A   Overcast
2:12 PM 66.2 °F 57.2 °F 73% 29.91 in 10.0 mi ESE 4.6 mph - N/A   Overcast
2:56 PM 68.0 °F 57.9 °F 70% 29.89 in 10.0 mi Calm Calm - N/A   Overcast
3:33 PM 66.2 °F 57.2 °F 73% 29.89 in 10.0 mi West 3.5 mph - N/A   Overcast
3:56 PM 69.1 °F 57.9 °F 68% 29.88 in 10.0 mi Calm Calm - N/A   Overcast
4:19 PM 68.0 °F 57.2 °F 68% 29.89 in 10.0 mi NE 3.5 mph - N/A   Overcast
4:38 PM 69.8 °F 57.2 °F 64% 29.88 in 10.0 mi Calm Calm - N/A   Mostly Cloudy
4:51 PM 69.8 °F 57.2 °F 64% 29.88 in 10.0 mi Calm Calm - N/A   Mostly Cloudy
4:56 PM 69.1 °F 57.9 °F 68% 29.87 in 10.0 mi ESE 3.5 mph - N/A   Mostly Cloudy
5:27 PM 66.2 °F 57.2 °F 73% 29.88 in 10.0 mi East 4.6 mph - N/A   Mostly Cloudy
5:49 PM 66.2 °F 57.2 °F 73% 29.87 in 10.0 mi ENE 6.9 mph - N/A   Overcast
5:56 PM 66.0 °F 57.9 °F 75% 29.86 in 10.0 mi East 5.8 mph - N/A   Overcast
6:16 PM 64.4 °F 57.2 °F 77% 29.87 in 10.0 mi East 9.2 mph - N/A   Overcast
6:31 PM 64.4 °F 57.2 °F 77% 29.86 in 10.0 mi East 6.9 mph - N/A   Overcast
6:56 PM 63.0 °F 55.9 °F 78% 29.86 in 10.0 mi ESE 8.1 mph - N/A   Overcast
7:56 PM 61.0 °F 54.0 °F 78% 29.86 in 8.0 mi East 8.1 mph - N/A   Overcast
8:56 PM 60.1 °F 53.1 °F 78% 29.87 in 7.0 mi East 9.2 mph - N/A   Overcast
9:56 PM 59.0 °F 53.1 °F 81% 29.89 in 6.0 mi ENE 4.6 mph - N/A   Haze
10:13 PM 57.2 °F 51.8 °F 82% 29.90 in 6.0 mi East 4.6 mph - N/A   Haze
10:56 PM 57.0 °F 52.0 °F 83% 29.91 in 4.0 mi East 4.6 mph - 0.05 in Rain Light Rain
11:15 PM 57.2 °F 51.8 °F 82% 29.91 in 5.0 mi East 4.6 mph - 0.00 in   Haze
11:56 PM 57.0 °F 52.0 °F 83% 29.90 in 2.5 mi East 5.8 mph - 0.00 in   Haze